sat.trackr.live / text

‹ back to catalog

KINEIS-3D

NORAD 61221 · 2024-172B

PAYLOAD ACTIVE UNKNOWN

§ Identity

Operator
Country
FR
Launch date
2024-09-20
Launch site
RLLB
Launch vehicle
Mass (kg)
RCS (m²)

External: N2YO · Heavens-Above · Gunter

§ Orbital elements

Epoch: 2026-05-24T19:45:28.015488Z

Period
97.81 min
Inclination
98.0424°
Eccentricity
0.0001361
Mean motion
14.72294155 rev/d
Perigee alt
652.8 km
Apogee alt
654.7 km
Semi-major
7,031.9 km
B*
2.5694e-4
RAAN
234.9798°
Arg perigee
156.4939°
Mean anomaly
203.6331°
Rev number
8,991

§ Raw data

KINEIS-3D1 61221U 24172B   26144.82324092  .00001574  00000+0  25694-3 0  99902 61221  98.0424 234.9798 0001361 156.4939 203.6331 14.72294155 89916

JSON: /api/v1/satellites/61221 · /tle

For live sub-satellite position, see the globe view (requires WebGL).

§ Visibility from observer

Set your observer location to see the next 7 days of passes ≥ 10°. The values pass through the URL so the page stays shareable.

No JS? Fill the form by hand. The geolocation button needs JavaScript.

§ Radio — SatNOGS DB

ModeDescriptionDownlinkUplink
BPSK S-band telemetry 2.265 GHz
BPSK Telemetry 400.662 MHz

2 transmitters · refreshed weekly from db.satnogs.org